FW2584 Weather Reports


time (UTC)temp
C
wind
direction
speed
KPH
gust
KPH
rain 1hr
cm
rain 24hr
cm
rain mn
cm
humidity
%
barometer
mb
20260505201021 26 0 0.0 6.4 0.00 0.00 0.00 50 1015.0
20260505200523 26 0 0.0 9.7 0.00 0.00 0.00 50 1015.1
20260505200040 27 0 0.0 11.3 0.00 0.00 0.00 52 1015.3
20260505195520 26 125 0.0 11.3 0.00 0.00 0.00 50 1015.2
20260505195022 27 0 1.6 11.3 0.00 0.00 0.00 50 1015.2
20260505194538 27 0 0.0 1.6 0.00 0.00 0.00 49 1015.2
20260505194022 26 0 0.0 1.6 0.00 0.00 0.00 51 1015.3
20260505193524 26 0 0.0 12.9 0.00 0.00 0.00 53 1015.3
20260505193048 26 0 0.0 12.9 0.00 0.00 0.00 50 1015.5
20260505192522 27 0 1.6 12.9 0.00 0.00 0.00 48 1015.5
20260505192021 27 0 0.0 8.0 0.00 0.00 0.00 50 1015.5
20260505191541 27 0 1.6 8.0 0.00 0.00 0.00 50 1015.5
20260505191022 27 0 0.0 6.4 0.00 0.00 0.00 50 1015.7
20260505190521 27 0 0.0 1.6 0.00 0.00 0.00 49 1015.8
20260505190033 26 0 0.0 4.8 0.00 0.00 0.00 52 1016.0
20260505185524 26 0 0.0 4.8 0.00 0.00 0.00 53 1016.1
20260505185020 26 0 0.0 4.8 0.00 0.00 0.00 50 1015.9
20260505184533 26 0 0.0 4.8 0.00 0.00 0.00 51 1016.1
20260505184023 27 0 0.0 6.4 0.00 0.00 0.00 50 1016.2
20260505183521 26 134 0.0 9.7 0.00 0.00 0.00 52 1016.2
20260505183038 26 134 3.2 9.7 0.00 0.00 0.00 49 1016.1
20260505182521 26 0 0.0 12.9 0.00 0.00 0.00 50 1016.3
20260505182019 26 0 0.0 12.9 0.00 0.00 0.00 53 1016.3
20260505181546 26 0 3.2 12.9 0.00 0.00 0.00 49 1016.2
20260505181023 26 300 3.2 12.9 0.00 0.00 0.00 49 1016.2
20260505180523 26 0 0.0 4.8 0.00 0.00 0.00 52 1016.3
20260505180038 26 0 0.0 14.5 0.00 0.00 0.00 54 1016.4
20260505175523 26 0 0.0 14.5 0.00 0.00 0.00 51 1016.4
20260505175020 26 0 0.0 3.2 0.00 0.00 0.00 52 1016.5
20260505174533 26 0 0.0 8.0 0.00 0.00 0.00 54 1016.5
20260505174021 26 0 1.6 8.0 0.00 0.00 0.00 52 1016.5
20260505173521 26 0 0.0 8.0 0.00 0.00 0.00 53 1016.5
20260505173035 26 0 1.6 8.0 0.00 0.00 0.00 51 1016.6
20260505172520 26 0 0.0 9.7 0.00 0.00 0.00 52 1016.7
20260505172024 26 242 1.6 9.7 0.00 0.00 0.00 50 1016.9
20260505171535 26 0 1.6 9.7 0.00 0.00 0.00 51 1016.8
20260505171025 26 0 0.0 8.0 0.00 0.00 0.00 51 1016.9
20260505170521 26 0 0.0 6.4 0.00 0.00 0.00 53 1016.8
20260505170039 26 242 1.6 6.4 0.00 0.00 0.00 53 1017.0
20260505165523 26 0 1.6 6.4 0.00 0.00 0.00 52 1017.0
20260505165023 26 225 0.0 6.4 0.00 0.00 0.00 54 1017.0
20260505164533 26 0 0.0 6.4 0.00 0.00 0.00 54 1017.1
20260505164111 25 0 0.0 6.4 0.00 0.00 0.00 55 1017.1
20260505163522 25 171 0.0 6.4 0.00 0.00 0.00 55 1017.1
20260505163034 25 0 0.0 6.4 0.00 0.00 0.00 55 1017.1
20260505162528 25 0 0.0 6.4 0.00 0.00 0.00 59 1017.2
20260505162023 25 0 0.0 6.4 0.00 0.00 0.00 58 1017.3
20260505161542 25 0 0.0 8.0 0.00 0.00 0.00 57 1017.5
20260505161022 25 0 0.0 8.0 0.00 0.00 0.00 59 1017.7
20260505160526 25 0 1.6 8.0 0.00 0.00 0.00 56 1017.6
20260505153033 23 0 0.0 6.4 0.00 0.00 0.00 62 1018.2
20260505152520 23 224 0.0 4.8 0.00 0.00 0.00 63 1018.2
20260505152024 23 0 0.0 4.8 0.00 0.00 0.00 64 1018.2
20260505151534 23 0 0.0 1.6 0.00 0.00 0.00 65 1018.2
20260505151022 23 0 0.0 9.7 0.00 0.00 0.00 67 1018.1
20260505150526 23 0 0.0 9.7 0.00 0.00 0.00 65 1018.1
20260505140523 20 0 0.0 6.4 0.00 0.00 0.00 74 1018.1
20260505125020 16 0 0.0 3.2 0.00 0.00 0.00 87 1018.1
20260505124546 15 0 0.0 3.2 0.00 0.00 0.00 89 1018.1
20260505124023 15 0 0.0 0.0 0.00 0.00 0.00 90 1017.9
20260505123520 14 0 0.0 0.0 0.00 0.00 0.00 92 1017.9
20260505123038 14 0 0.0 0.0 0.00 0.00 0.00 93 1017.9
20260505122520 13 0 0.0 0.0 0.00 0.00 0.00 94 1017.9
20260505122022 13 0 0.0 0.0 0.00 0.00 0.00 95 1017.9
20260505121538 12 0 0.0 1.6 0.00 0.00 0.00 96 1017.9
20260505121021 12 0 0.0 1.6 0.00 0.00 0.00 96 1018.0
20260505120526 12 0 0.0 1.6 0.00 0.00 0.00 96 1018.0
20260505120036 12 0 0.0 0.0 0.00 0.00 0.00 96 1017.9
20260505115520 11 0 0.0 0.0 0.00 0.00 0.00 96 1017.8
20260505115022 11 0 0.0 0.0 0.00 0.00 0.00 96 1017.8
20260505114535 11 0 0.0 0.0 0.00 0.00 0.00 96 1017.9
20260505114024 11 0 0.0 0.0 0.00 0.00 0.00 96 1017.8
20260505113526 11 0 0.0 0.0 0.00 0.00 0.00 96 1017.7
20260505113038 10 0 0.0 0.0 0.00 0.00 0.00 96 1017.7
20260505112525 10 0 0.0 0.0 0.00 0.00 0.00 96 1017.6
20260505112023 10 0 0.0 0.0 0.00 0.00 0.00 96 1017.5
20260505111534 10 0 0.0 0.0 0.00 0.00 0.00 95 1017.6
20260505111023 10 0 0.0 0.0 0.00 0.00 0.00 95 1017.6
20260505110522 10 0 0.0 0.0 0.00 0.00 0.00 95 1017.6
20260505102021 10 0 0.0 0.0 0.00 0.00 0.00 94 1016.6
20260505101542 10 0 0.0 0.0 0.00 0.00 0.00 94 1016.5
20260505101023 10 0 0.0 0.0 0.00 0.00 0.00 93 1016.5
20260505100523 10 0 0.0 0.0 0.00 0.00 0.00 93 1016.5
20260505100035 10 0 0.0 0.0 0.00 0.00 0.00 93 1016.5
20260505095520 10 0 0.0 0.0 0.00 0.00 0.00 93 1016.5
20260505095020 10 0 0.0 0.0 0.00 0.00 0.00 93 1016.5
20260505094532 11 0 0.0 0.0 0.00 0.00 0.00 93 1016.4
20260505094021 11 0 0.0 0.0 0.00 0.00 0.00 93 1016.5
20260505093521 11 0 0.0 0.0 0.00 0.00 0.00 93 1016.4
20260505093034 11 0 0.0 0.0 0.00 0.00 0.00 92 1016.5
20260505092522 11 0 0.0 0.0 0.00 0.00 0.00 91 1016.5
20260505092023 11 0 0.0 0.0 0.00 0.00 0.00 91 1016.4
20260505091536 11 0 0.0 0.0 0.00 0.00 0.00 91 1016.3
20260505091022 11 0 0.0 0.0 0.00 0.00 0.00 91 1016.2
20260505090522 11 0 0.0 0.0 0.00 0.00 0.00 90 1016.3
20260505090042 11 0 0.0 0.0 0.00 0.00 0.00 90 1016.3
20260505085524 11 0 0.0 0.0 0.00 0.00 0.00 89 1016.3
20260505085022 11 0 0.0 0.0 0.00 0.00 0.00 88 1016.3
20260505084545 11 0 0.0 0.0 0.00 0.00 0.00 88 1016.2
20260505084022 12 0 0.0 0.0 0.00 0.00 0.00 88 1016.2
20260505083525 12 0 0.0 0.0 0.00 0.00 0.00 88 1016.0
20260505083048 12 0 0.0 0.0 0.00 0.00 0.00 88 1016.0
20260505082520 12 0 0.0 0.0 0.00 0.00 0.00 88 1016.0
20260505082023 12 0 0.0 0.0 0.00 0.00 0.00 87 1016.0
20260505081535 12 0 0.0 0.0 0.00 0.00 0.00 87 1016.0
20260505081024 12 0 0.0 0.0 0.00 0.00 0.00 86 1016.0
20260505080524 12 0 0.0 0.0 0.00 0.00 0.00 86 1016.0
20260505080043 12 0 0.0 0.0 0.00 0.00 0.00 86 1015.9
20260505075520 12 0 0.0 0.0 0.00 0.00 0.00 86 1015.8
20260505075023 12 0 0.0 0.0 0.00 0.00 0.00 85 1015.8
20260505074535 12 0 0.0 0.0 0.00 0.00 0.00 85 1015.9
20260505074021 12 0 0.0 0.0 0.00 0.00 0.00 85 1015.9
20260505073523 12 0 0.0 0.0 0.00 0.00 0.00 85 1016.0
20260505073117 12 0 0.0 0.0 0.00 0.00 0.00 85 1016.0
20260505072522 12 0 0.0 0.0 0.00 0.00 0.00 85 1015.8
20260505072023 12 0 0.0 0.0 0.00 0.00 0.00 84 1015.9
20260505071545 12 0 0.0 0.0 0.00 0.00 0.00 84 1016.0
20260505071025 12 0 0.0 0.0 0.00 0.00 0.00 84 1016.0
20260505070523 13 0 0.0 0.0 0.00 0.00 0.00 84 1015.9
20260505070036 13 0 0.0 0.0 0.00 0.00 0.00 83 1015.8
20260505065522 13 0 0.0 0.0 0.00 0.00 0.00 84 1015.8
20260505065023 13 0 0.0 0.0 0.00 0.00 0.00 84 1015.9
20260505064537 13 0 0.0 0.0 0.00 0.00 0.00 84 1015.9
20260505064023 13 0 0.0 0.0 0.00 0.00 0.00 83 1015.9
20260505063523 13 0 0.0 0.0 0.00 0.00 0.00 83 1015.9
20260505063040 13 0 0.0 0.0 0.00 0.00 0.00 83 1015.9
20260505062523 13 0 0.0 0.0 0.00 0.00 0.00 83 1016.0
20260505062021 13 0 0.0 0.0 0.00 0.00 0.00 83 1016.0
20260505061538 13 0 0.0 0.0 0.00 0.00 0.00 83 1016.0
20260505061027 13 0 0.0 0.0 0.00 0.00 0.00 83 1016.1
20260505060521 13 0 0.0 0.0 0.00 0.00 0.00 82 1016.2
20260505060039 13 0 0.0 0.0 0.00 0.00 0.00 82 1016.1
20260505055523 13 0 0.0 0.0 0.00 0.00 0.00 82 1016.1
20260505055023 13 0 0.0 0.0 0.00 0.00 0.00 81 1016.2
20260505054536 13 0 0.0 0.0 0.00 0.00 0.00 81 1016.2
20260505054024 13 0 0.0 0.0 0.00 0.00 0.00 81 1016.2
20260505053522 14 0 0.0 0.0 0.00 0.00 0.00 82 1016.3
20260505053036 14 0 0.0 0.0 0.00 0.00 0.00 80 1016.4
20260505052522 14 0 0.0 0.0 0.00 0.00 0.00 80 1016.4
20260505052022 14 0 0.0 0.0 0.00 0.00 0.00 79 1016.5
20260505051535 14 0 0.0 0.0 0.00 0.00 0.00 79 1016.5
20260505051024 14 0 0.0 0.0 0.00 0.00 0.00 78 1016.5
20260505050523 15 0 0.0 0.0 0.00 0.00 0.00 78 1016.5
20260505041538 15 0 0.0 0.0 0.00 0.00 0.00 76 1016.6
20260505041022 15 0 0.0 0.0 0.00 0.00 0.00 76 1016.5
20260505040522 15 0 0.0 0.0 0.00 0.00 0.00 75 1016.5
20260505040039 16 0 0.0 0.0 0.00 0.00 0.00 75 1016.5
20260505035526 16 0 0.0 0.0 0.00 0.00 0.00 75 1016.6
20260505035021 16 0 0.0 0.0 0.00 0.00 0.00 75 1016.5
20260505034535 16 0 0.0 0.0 0.00 0.00 0.00 74 1016.5
20260505034023 16 0 0.0 0.0 0.00 0.00 0.00 74 1016.5
20260505033523 16 0 0.0 0.0 0.00 0.00 0.00 74 1016.6
20260505033039 16 0 0.0 0.0 0.00 0.00 0.00 74 1016.6
20260505032523 16 0 0.0 0.0 0.00 0.00 0.00 74 1016.6
20260505032023 16 0 0.0 0.0 0.00 0.00 0.00 74 1016.5
20260505031551 16 0 0.0 0.0 0.00 0.00 0.00 73 1016.6
20260505031022 17 0 0.0 0.0 0.00 0.00 0.00 73 1016.5
20260505030522 17 0 0.0 0.0 0.00 0.00 0.00 73 1016.6
20260505030044 17 0 0.0 0.0 0.00 0.00 0.00 73 1016.6
20260505025521 17 0 0.0 0.0 0.00 0.00 0.00 72 1016.5
20260505025022 17 0 0.0 0.0 0.00 0.00 0.00 73 1016.4
20260505024545 17 0 0.0 0.0 0.00 0.00 0.00 73 1016.5
20260505024027 17 0 0.0 0.0 0.00 0.00 0.00 73 1016.5
20260505023524 17 0 0.0 0.0 0.00 0.00 0.00 71 1016.5
20260505023040 17 0 0.0 0.0 0.00 0.00 0.00 71 1016.5
20260505022522 18 0 0.0 0.0 0.00 0.00 0.00 71 1016.4
20260505022023 18 0 0.0 0.0 0.00 0.00 0.00 70 1016.3
20260505021536 18 0 0.0 0.0 0.00 0.00 0.00 70 1016.3
20260505021025 18 0 0.0 0.0 0.00 0.00 0.00 70 1016.3
20260505020522 18 0 0.0 0.0 0.00 0.00 0.00 70 1016.3
20260505020034 18 0 0.0 0.0 0.00 0.00 0.00 70 1016.2
20260505015519 18 0 0.0 1.6 0.00 0.00 0.00 69 1016.2
20260505015022 18 0 0.0 1.6 0.00 0.00 0.00 68 1016.2
20260505014559 19 0 0.0 1.6 0.00 0.00 0.00 68 1016.1
20260505014023 19 0 0.0 1.6 0.00 0.00 0.00 67 1015.9
20260505013522 19 0 0.0 4.8 0.00 0.00 0.00 66 1015.8
20260505013034 19 0 0.0 4.8 0.00 0.00 0.00 67 1015.8
20260505012520 19 0 0.0 1.6 0.00 0.00 0.00 67 1015.7
20260505012023 19 0 0.0 1.6 0.00 0.00 0.00 67 1015.7
20260505011540 19 0 0.0 0.0 0.00 0.00 0.00 66 1015.5
20260505011022 18 0 0.0 0.0 0.00 0.00 0.00 66 1015.5
20260505010522 19 0 0.0 0.0 0.00 0.00 0.00 65 1015.4
20260505010033 19 0 0.0 0.0 0.00 0.00 0.00 63 1015.3
20260505005523 19 0 0.0 0.0 0.00 0.00 0.00 60 1015.3
20260505005023 19 0 0.0 0.0 0.00 0.00 0.00 59 1015.1
20260505004535 19 0 0.0 0.0 0.00 0.00 0.00 58 1015.1
20260505004022 20 0 0.0 0.0 0.00 0.00 0.00 55 1015.1
20260505003525 20 0 0.0 0.0 0.00 0.00 0.00 54 1015.0
20260505003038 20 0 0.0 0.0 0.00 0.00 0.00 54 1015.0
20260505002522 20 0 0.0 0.0 0.00 0.00 0.00 53 1014.8
20260505002021 20 0 0.0 0.0 0.00 0.00 0.00 53 1014.8
20260505001542 20 0 0.0 0.0 0.00 0.00 0.00 53 1014.7
20260505001019 21 0 0.0 0.0 0.00 0.00 0.00 53 1014.7
20260505000521 21 0 0.0 0.0 0.00 0.00 0.00 52 1014.7
20260505000035 21 0 0.0 0.0 0.00 0.00 0.00 51 1014.7
20260504235520 21 0 0.0 0.0 0.00 0.00 0.00 50 1014.6
20260504235022 22 0 0.0 1.6 0.00 0.00 0.00 50 1014.5
20260504234533 22 0 0.0 1.6 0.00 0.00 0.00 50 1014.5
20260504234019 22 0 0.0 0.0 0.00 0.00 0.00 51 1014.5
20260504233523 22 0 0.0 0.0 0.00 0.00 0.00 49 1014.4
20260504233035 22 0 0.0 0.0 0.00 0.00 0.00 48 1014.3
20260504232523 23 0 0.0 0.0 0.00 0.00 0.00 48 1014.3
20260504232022 23 0 0.0 1.6 0.00 0.00 0.00 47 1014.2
20260504231540 23 0 0.0 1.6 0.00 0.00 0.00 47 1014.1
20260504231022 23 0 0.0 0.0 0.00 0.00 0.00 47 1014.1
20260504230522 23 0 0.0 1.6 0.00 0.00 0.00 45 1014.1
20260504230035 24 0 0.0 1.6 0.00 0.00 0.00 45 1014.1
20260504225523 24 0 0.0 1.6 0.00 0.00 0.00 44 1014.1
20260504225021 24 319 0.0 3.2 0.00 0.00 0.00 43 1014.1
20260504224538 24 0 0.0 3.2 0.00 0.00 0.00 41 1014.0
20260504224020 24 0 0.0 3.2 0.00 0.00 0.00 43 1014.1
20260504223520 24 0 0.0 3.2 0.00 0.00 0.00 42 1014.2
20260504223035 24 0 0.0 1.6 0.00 0.00 0.00 43 1014.2
20260504222520 25 0 0.0 1.6 0.00 0.00 0.00 41 1014.1
20260504222024 25 0 0.0 1.6 0.00 0.00 0.00 41 1014.1
20260504221535 25 0 0.0 6.4 0.00 0.00 0.00 42 1014.2
20260504221022 25 0 0.0 6.4 0.00 0.00 0.00 42 1014.2
20260504220522 25 117 0.0 1.6 0.00 0.00 0.00 43 1014.2
20260504220034 25 0 0.0 0.0 0.00 0.00 0.00 41 1014.1
20260504215522 25 0 0.0 4.8 0.00 0.00 0.00 41 1014.2
20260504215021 25 0 0.0 9.7 0.00 0.00 0.00 40 1014.2
20260504214536 26 0 0.0 9.7 0.00 0.00 0.00 41 1014.2
20260504214026 26 187 0.0 1.6 0.00 0.00 0.00 41 1014.2
20260504213522 25 0 0.0 4.8 0.00 0.00 0.00 41 1014.2
20260504213033 26 0 0.0 6.4 0.00 0.00 0.00 39 1014.2
20260504212523 26 0 0.0 6.4 0.00 0.00 0.00 40 1014.3
20260504212026 26 0 0.0 3.2 0.00 0.00 0.00 38 1014.3
20260504211534 26 0 0.0 1.6 0.00 0.00 0.00 39 1014.2
20260504211022 26 0 0.0 1.6 0.00 0.00 0.00 38 1014.1
20260504210522 26 0 0.0 1.6 0.00 0.00 0.00 39 1014.2
20260504210053 27 0 0.0 1.6 0.00 0.00 0.00 39 1014.3
20260504205523 27 0 0.0 4.8 0.00 0.00 0.00 40 1014.4
20260504205022 26 0 0.0 4.8 0.00 0.00 0.00 40 1014.4
20260504204553 26 0 0.0 8.0 0.00 0.00 0.00 41 1014.4
20260504204022 26 0 1.6 8.0 0.00 0.00 0.00 40 1014.5
20260504203522 26 265 0.0 9.7 0.00 0.00 0.00 40 1014.5
20260504203041 26 0 0.0 9.7 0.00 0.00 0.00 39 1014.5
20260504202522 26 0 0.0 1.6 0.00 0.00 0.00 38 1014.6
20260504202022 26 0 0.0 6.4 0.00 0.00 0.00 39 1014.7
20260504201535 26 0 0.0 6.4 0.00 0.00 0.00 40 1014.8